Lid_Strength_Index
10 10 9 8 4 1 2 2 2 1 1 1 2 2 2 1 1 1 1 1 1 2 2 3 3 4 5 5 5 5 8 8 8 10 8 8 8 8 7 6 6 6 7
11 11 10 10 8 4 1 1 1 1 1 1 1 1 1 1 1 1 2 1 1 1 2 3 3 3 3 5 6 7 8 7 10 8 10 8 7 8 7 7 8 6 6
12 10 10 10 10 9 5 2 1 1 0 0 1 3 3 3 3 3 2 2 1 1 1 2 2 3 3 4 5 6 6 7 10 10 8 11 10 9 9 9 9 8 7
11 11 10 9 9 9 10 5 2 1 1 1 1 1 2 2 1 1 1 1 1 1 1 2 2 3 4 4 4 5 6 6 9 10 9 9 9 10 10 11 11 10 10
11 10 10 9 9 8 8 9 5 2 1 1 1 1 2 2 3 3 3 3 3 1 1 1 1 2 3 3 3 5 6 6 5 8 10 9 9 11 11 9 8 13 12
11 10 10 9 9 8 7 5 5 3 2 1 2 2 2 3 4 4 4 4 4 4 3 2 1 1 2 3 3 4 5 5 6 5 7 8 10 10 10 11 9 9 7
10 10 10 10 9 9 8 6 5 4 3 2 2 3 3 3 3 4 4 4 4 5 4 4 3 2 2 2 2 3 4 4 5 5 5 6 6 6 7 8 8 9 9
11 11 10 10 10 10 9 8 8 8 6 5 4 4 4 3 3 3 3 4 3 3 3 3 2 1 0 0 1 1 2 2 4 4 4 4 5 4 5 6 8 9 8
11 11 10 10 10 10 10 9 9 9 8 8 8 7 7 6 5 5 5 4 4 5 4 4 4 4 3 1 1 1 2 3 3 4 4 4 4 5 5 5 6 7 8
10 10 10 10 10 10 10 9 9 9 9 9 8 8 8 8 7 7 7 6 6 6 6 6 5 5 5 4 3 2 1 2 3 3 4 4 4 4 5 5 6 6 7
11 10 10 10 10 9 9 9 9 9 9 9 9 8 8 8 8 8 7 7 7 7 7 7 6 6 6 5 5 4 4 4 4 4 5 5 5 5 5 6 6 7 7
11 10 10 10 10 10 10 10 10 10 10 10 10 10 9 9 9 9 9 8 8 8 8 8 8 7 7 7 7 6 6 6 6 5 5 5 5 6 5 5 6 7 7
11 11 11 11 10 10 10 10 10 10 11 11 10 10 10 10 10 10 10 10 10 10 9 9 9 9 9 8 8 7 7 6 6 6 6 6 6 7 7 7 7 8 8
11 11 11 11 11 11 11 11 10 11 11 11 11 11 11 11 11 11 11 11 11 11 11 11 11 11 10 10 9 8 7 7 6 6 6 6 7 7 7 8 8 8 9
11 11 11 11 11 11 11 11 11 11 12 12 12 12 12 13 13 13 13 13 13 12 12 12 12 11 11 11 10 10 9 9 9 8 8 8 8 9 8 9 8 9 10
12 12 11 11 11 11 11 11 12 12 13 13 13 13 13 14 14 14 14 14 13 13 13 13 13 13 12 10 10 10 11 11 11 10 10 10 11 10 9 8 8 8 10
12 12 12 12 12 12 12 12 12 13 14 14 14 14 14 15 15 15 15 14 14 14 14 14 13 13 13 11 10 10 11 11 10 10 10 10 10 11 10 9 9 9 8
12 12 12 12 12 12 13 13 13 14 14 15 15 15 15 15 15 16 15 15 15 15 15 15 14 14 14 11 10 10 10 10 10 10 10 11 10 10 11 11 12 12 12
12 12 12 12 13 13 13 14 14 14 14 14 14 15 16 16 16 17 16 15 15 15 15 14 15 15 14 11 9 9 11 10 10 11 11 11 11 11 10 11 12 12 12
12 12 13 13 13 13 14 14 14 15 15 15 15 15 16 17 17 16 16 16 16 15 15 14 14 15 15 12 11 10 11 11 11 12 12 12 11 10 10 11 11 12 12
12 13 13 13 14 14 15 15 15 15 15 16 16 16 16 17 17 16 17 16 17 16 16 16 15 15 15 14 11 10 11 11 12 12 12 12 10 9 9 10 11 11 11
14 13 13 13 13 15 16 16 16 15 17 17 17 17 18 17 15 15 17 18 18 18 17 16 15 14 14 13 11 9 10 10 12 12 12 11 9 9 9 10 9 9 11
14 14 15 15 14 17 17 16 15 16 17 18 16 14 14 17 14 14 16 16 18 17 16 15 15 14 14 13 10 9 10 11 12 11 11 10 8 8 9 8 9 11 11
15 16 17 17 17 17 16 18 17 16 19 19 17 16 15 13 12 13 14 16 16 16 15 15 15 15 14 13 11 10 12 11 11 10 9 9 8 8 9 10 11 11 11
16 17 18 18 18 18 18 19 17 18 19 19 18 16 14 14 13 12 12 14 13 13 13 13 13 13 14 12 10 10 11 10 10 9 9 10 11 11 11 12 12 12 12
18 19 20 21 20 20 20 20 22 21 21 20 18 17 16 15 14 14 13 11 10 9 8 8 8 11 10 9 7 8 8 8 8 10 11 12 12 12 12 14 15 15 15